Hourly Data Report for November 03, 2020

VICTORIA UNIVERSITY CS
BRITISH COLUMBIA
Current Station Operator: ECCC - MSC

48°27'25.200" N
123°18'16.600" W
60.10 m
1018598
71783
WYJ

Download Data

Hourly Data (November 2020)
Hourly Data Report for November 3, 2020
TIME
LST
Temp Definition
°C
Dew Point Definition
°C
Rel Hum Definition
%
Precip. Amount Definition
mm

Wind Dir Definition
10's deg

Wind Spd Definition
km/h
Visibility Definition
km
Stn Press Definition
kPa
Hmdx Definition


Wind Chill Definition


Weather Definition


00:00 6.5 6.4 100 0.0 2 6   100.51     LegendNANA
01:00 7.1 7.0 100 0.0 1 3   100.50     LegendNANA
02:00 7.5 7.4 100 0.0 2 5   100.46     LegendNANA
03:00 7.9 7.8 100 0.0 32 4   100.42     LegendNANA
04:00 8.1 8.0 99 0.0 35 1   100.36     LegendNANA
05:00 8.6 8.6 100 2.1 3 4   100.26     LegendNANA
06:00 8.8 8.7 100 2.2 2 4   100.28     LegendNANA
07:00 8.3 8.2 100 4.4 9 3   100.24     LegendNANA
08:00 8.1 8.1 100 3.2 1 4   100.26     LegendNANA
09:00 8.7 8.7 100 1.4 2 5   100.30     LegendNANA
10:00 9.8 9.8 100 0.6 10 3   100.27     LegendNANA
11:00 9.2 9.2 100 0.3 14 3   100.34     LegendNANA
12:00 8.8 8.8 100 3.0 6 1   100.23     LegendNANA
13:00 9.8 9.7 100 0.5 10 2   100.30     LegendNANA
14:00 10.3 10.2 100 0.0 8 3   100.34     LegendNANA
15:00 10.4 10.4 100 0.2 10 4   100.36     LegendNANA
16:00 10.8 10.8 100 0.0 9 4   100.39     LegendNANA
17:00 10.3 10.3 100 0.0 10 2   100.37     LegendNANA
18:00 10.0 10.0 100 0.0 15 2   100.40     LegendNANA
19:00 10.5 10.4 100 0.2 0 1   100.40     LegendNANA
20:00 10.9 10.9 100 0.0 11 2   100.33     LegendNANA
21:00 11.0 11.0 100 0.0 10 2   100.28     LegendNANA
22:00 11.2 11.2 100 0.0 7 4   100.32     LegendNANA
23:00 11.5 11.5 100 0.2 8 4   100.34     LegendNANA

Notes on Data Quality.

Legend

  • E = Estimated
  • M = Missing
  • NA = Not Available*
  • [empty] = Indicates an unobserved value
Date modified: